STARLINK-30269 (57528 NORAD) Tracking and Keplerian Element Data

This shows tracking and keplerian element data for the satellite.

Feedback or suggestion? Click here.




ElementValue
Catalog57528
NameSTARLINK-30269
Epoch Orbit413
Epoch Day239.16667824
Epoch Year2023
RAAN359.5877
Inclination42.9994
Eccentricity0.0001052
Argument of Perigee265.5781
Mean Anonmoly94.2131
Mean Motion15.54815464
Decay Rate-0.01621353
L11 57528U 23115H 23239.16667824 -.01621353 00000+0 -26364-1 0 9992
L22 57528 42.9994 359.5877 0001052 265.5781 94.2131 15.54815464 4133



Live tracking and technical data element details for STARLINK-30269 (NORAD 57528). STARLINK-30269 can be tracked NOW for your location showing map with azimuth and elevation plus other details from your city location.







IsCatalogInMostPopularTable: catalog: 57528, numindb: 6
Update: records affected: 1



GetName: 57528 STARLINK-30269

Hit Count: updated at: Tue, 26 Sep 2023 11:26:40 GMT